Tiempo cada hora Abadzekhskaya

Hoy, 28 Octubre, Miércoles

Tiempo Temperatura Precipitaciones Viento Presión Humedad
00:00 +14°C° 0 mm 1 mps 713 mmHg 55%
01:00 +14°C° 0 mm 1 mps 713 mmHg 53%
02:00 +14°C° 0 mm 1 mps 714 mmHg 52%
03:00 +14°C° 0 mm 2 mps 714 mmHg 51%
04:00 +14°C° 0 mm 2 mps 713 mmHg 50%
05:00 +14°C° 0 mm 2 mps 713 mmHg 49%
06:00 +14°C° 0 mm 2 mps 713 mmHg 48%
07:00 +16°C° 0 mm 1 mps 713 mmHg 46%
08:00 +18°C° 0 mm 1 mps 714 mmHg 44%
09:00 +20°C° 0 mm 1 mps 714 mmHg 42%
10:00 +22°C° 0 mm 1 mps 714 mmHg 37%
11:00 +24°C° 0 mm 1 mps 714 mmHg 33%
12:00 +25°C° 0 mm 2 mps 714 mmHg 28%
13:00 +25°C° 0 mm 2 mps 714 mmHg 30%
14:00 +25°C° 0 mm 2 mps 714 mmHg 31%
15:00 +25°C° 0 mm 2 mps 714 mmHg 32%
16:00 +23°C° 0 mm 2 mps 714 mmHg 39%
17:00 +19°C° 0 mm 2 mps 713 mmHg 46%
18:00 +17°C° 0 mm 2 mps 713 mmHg 53%
19:00 +17°C° 0 mm 2 mps 713 mmHg 52%
20:00 +17°C° 0 mm 2 mps 712 mmHg 52%
21:00 +16°C° 0 mm 2 mps 712 mmHg 52%
22:00 +16°C° 0 mm 2 mps 712 mmHg 51%
23:00 +16°C° 0 mm 2 mps 712 mmHg 50%

Mañana, 29 Octubre, Jueves

Tiempo Temperatura Precipitaciones Viento Presión Humedad
00:00 +16°C° 0 mm 2 mps 712 mmHg 49%
01:00 +16°C° 0 mm 2 mps 712 mmHg 48%
02:00 +16°C° 0 mm 2 mps 712 mmHg 47%
03:00 +17°C° 0 mm 2 mps 712 mmHg 46%
04:00 +16°C° 0 mm 2 mps 712 mmHg 46%
05:00 +16°C° 0 mm 1 mps 712 mmHg 47%
06:00 +16°C° 0 mm 1 mps 712 mmHg 47%
07:00 +18°C° 0 mm 1 mps 712 mmHg 46%
08:00 +19°C° 0 mm 1 mps 712 mmHg 46%
09:00 +21°C° 0 mm 1 mps 712 mmHg 45%
10:00 +22°C° 0 mm 1 mps 713 mmHg 40%
11:00 +24°C° 0 mm 1 mps 713 mmHg 35%
12:00 +26°C° 0 mm 1 mps 713 mmHg 30%
13:00 +26°C° 0 mm 1 mps 713 mmHg 30%
14:00 +26°C° 0 mm 1 mps 713 mmHg 31%
15:00 +26°C° 0 mm 1 mps 712 mmHg 32%
16:00 +23°C° 0 mm 1 mps 712 mmHg 39%
17:00 +21°C° 0 mm 1 mps 712 mmHg 45%
18:00 +19°C° 0 mm 1 mps 711 mmHg 52%
19:00 +18°C° 0 mm 1 mps 711 mmHg 51%
20:00 +18°C° 0 mm 1 mps 711 mmHg 51%
21:00 +18°C° 0 mm 1 mps 712 mmHg 51%
22:00 +18°C° 0 mm 1 mps 712 mmHg 50%
23:00 +17°C° 0 mm 2 mps 711 mmHg 49%

Pasado mañana, 30 Octubre, Viernes

Tiempo Temperatura Precipitaciones Viento Presión Humedad
00:00 +17°C° 0 mm 2 mps 711 mmHg 49%
01:00 +16°C° 0.1 mm 1 mps 712 mmHg 56%
02:00 +16°C° 0.1 mm 1 mps 712 mmHg 63%
03:00 +15°C° 0.1 mm 1 mps 712 mmHg 70%
04:00 +15°C° 0.2 mm 1 mps 712 mmHg 71%
05:00 +15°C° 0.2 mm 2 mps 712 mmHg 73%
06:00 +15°C° 0.2 mm 2 mps 712 mmHg 75%
07:00 +15°C° 0.1 mm 2 mps 713 mmHg 73%
08:00 +16°C° 0.1 mm 1 mps 713 mmHg 72%
09:00 +16°C° 0.1 mm 1 mps 713 mmHg 70%
10:00 +19°C° 0 mm 1 mps 713 mmHg 64%
11:00 +21°C° 0 mm 1 mps 713 mmHg 57%
12:00 +22°C° 0 mm 1 mps 713 mmHg 50%
13:00 +22°C° 0.2 mm 1 mps 713 mmHg 50%
14:00 +21°C° 0.2 mm 2 mps 713 mmHg 50%
15:00 +21°C° 0.2 mm 2 mps 713 mmHg 50%
16:00 +20°C° 0.3 mm 1 mps 713 mmHg 58%
17:00 +18°C° 0.3 mm 1 mps 712 mmHg 65%
18:00 +16°C° 0.3 mm 1 mps 712 mmHg 73%
19:00 +15°C° 0.2 mm 1 mps 712 mmHg 75%
20:00 +14°C° 0.2 mm 1 mps 712 mmHg 77%
21:00 +14°C° 0.2 mm 1 mps 712 mmHg 79%
22:00 +14°C° 0 mm 1 mps 711 mmHg 79%
23:00 +13°C° 0 mm 1 mps 711 mmHg 80%

31 Octubre, Sábado

Tiempo Temperatura Precipitaciones Viento Presión Humedad
00:00 +13°C° 0 mm 1 mps 711 mmHg 80%
01:00 +13°C° 0 mm 1 mps 711 mmHg 80%
02:00 +13°C° 0 mm 1 mps 710 mmHg 80%
03:00 +13°C° 0 mm 1 mps 710 mmHg 80%
04:00 +13°C° 0 mm 1 mps 710 mmHg 80%
05:00 +13°C° 0 mm 1 mps 710 mmHg 80%
06:00 +13°C° 0 mm 1 mps 710 mmHg 79%
07:00 +14°C° 0 mm 1 mps 710 mmHg 75%
08:00 +15°C° 0 mm 1 mps 710 mmHg 70%
09:00 +16°C° 0 mm 1 mps 710 mmHg 66%
10:00 +19°C° 0 mm 1 mps 710 mmHg 58%
11:00 +21°C° 0 mm 1 mps 711 mmHg 50%
12:00 +23°C° 0 mm 1 mps 711 mmHg 42%
13:00 +23°C° 0 mm 2 mps 711 mmHg 45%
14:00 +21°C° 0 mm 2 mps 711 mmHg 49%
15:00 +20°C° 0 mm 2 mps 711 mmHg 53%
16:00 +19°C° 0 mm 2 mps 710 mmHg 61%
17:00 +18°C° 0 mm 1 mps 710 mmHg 69%
18:00 +15°C° 0 mm 1 mps 710 mmHg 77%
19:00 +15°C° 0 mm 1 mps 710 mmHg 78%
20:00 +14°C° 0 mm 1 mps 711 mmHg 78%
21:00 +14°C° 0 mm 1 mps 711 mmHg 79%
22:00 +14°C° 0 mm 1 mps 711 mmHg 80%
23:00 +13°C° 0 mm 1 mps 711 mmHg 81%

1 Noviembre, Domingo

Tiempo Temperatura Precipitaciones Viento Presión Humedad
00:00 +12°C° 0 mm 0 mps 711 mmHg 82%
01:00 +12°C° 0 mm 0 mps 711 mmHg 84%
02:00 +12°C° 0 mm 0 mps 711 mmHg 87%
03:00 +11°C° 0 mm 0 mps 711 mmHg 89%
04:00 +12°C° 0.3 mm 0 mps 711 mmHg 89%
05:00 +13°C° 0.3 mm 1 mps 712 mmHg 89%
06:00 +13°C° 0.3 mm 1 mps 712 mmHg 89%
07:00 +13°C° 1.9 mm 1 mps 712 mmHg 90%
08:00 +12°C° 1.9 mm 1 mps 713 mmHg 92%
09:00 +12°C° 1.9 mm 1 mps 713 mmHg 93%
10:00 +13°C° 0.4 mm 1 mps 713 mmHg 87%
11:00 +15°C° 0.4 mm 1 mps 714 mmHg 81%
12:00 +16°C° 0.4 mm 2 mps 714 mmHg 75%
13:00 +16°C° 0.1 mm 1 mps 714 mmHg 72%
14:00 +18°C° 0.1 mm 1 mps 714 mmHg 70%
15:00 +18°C° 0.1 mm 1 mps 714 mmHg 68%
16:00 +16°C° 0.1 mm 1 mps 714 mmHg 73%
17:00 +14°C° 0.1 mm 1 mps 714 mmHg 79%
18:00 +13°C° 0.1 mm 1 mps 714 mmHg 85%
19:00 +13°C° 0.2 mm 1 mps 714 mmHg 86%
20:00 +13°C° 0.2 mm 1 mps 714 mmHg 86%
21:00 +13°C° 0.2 mm 2 mps 715 mmHg 87%
22:00 +13°C° 0.1 mm 1 mps 714 mmHg 88%
23:00 +12°C° 0.1 mm 1 mps 714 mmHg 88%

2 Noviembre, Lunes

Tiempo Temperatura Precipitaciones Viento Presión Humedad
00:00 +12°C° 0.1 mm 1 mps 714 mmHg 89%
01:00 +12°C° 0 mm 1 mps 714 mmHg 89%
02:00 +12°C° 0 mm 1 mps 714 mmHg 89%
03:00 +11°C° 0 mm 1 mps 714 mmHg 90%
04:00 +11°C° 0 mm 1 mps 714 mmHg 90%
05:00 +11°C° 0 mm 1 mps 714 mmHg 90%
06:00 +11°C° 0 mm 1 mps 715 mmHg 90%
07:00 +12°C° 0 mm 1 mps 715 mmHg 88%
08:00 +13°C° 0 mm 1 mps 716 mmHg 85%
09:00 +14°C° 0 mm 1 mps 716 mmHg 82%
10:00 +15°C° 0 mm 1 mps 716 mmHg 78%
11:00 +16°C° 0 mm 1 mps 716 mmHg 74%
12:00 +19°C° 0 mm 1 mps 717 mmHg 70%
13:00 +18°C° 0 mm 1 mps 717 mmHg 71%
14:00 +17°C° 0 mm 2 mps 717 mmHg 72%
15:00 +17°C° 0 mm 2 mps 716 mmHg 73%
16:00 +16°C° 0 mm 2 mps 716 mmHg 78%
17:00 +15°C° 0 mm 1 mps 716 mmHg 83%
18:00 +14°C° 0 mm 1 mps 716 mmHg 88%
19:00 +14°C° 0 mm 1 mps 717 mmHg 89%
20:00 +13°C° 0 mm 1 mps 717 mmHg 90%
21:00 +13°C° 0 mm 1 mps 717 mmHg 91%
22:00 +13°C° 0 mm 1 mps 717 mmHg 91%
23:00 +13°C° 0 mm 1 mps 717 mmHg 92%
Mostrar más

Necesitamos Su Consentimiento

Meteoprog y nuestros Proveedores de Servicios pueden almacenar y acceder a sus datos personales como cookies, identificadores de dispositivo u otras tecnologías similares de su dispositivo y procesar dichos datos para personalizar contenido y anuncios, además de ofrecer funciones de redes sociales y analizar el tráfico.

  • Almacenar y/o acceder a información en su dispositivo

    Se puede almacenar o acceder a cookies, identificadores de dispositivo u otra información de su dispositivo para los fines anteriormente indicados.

  • Anuncios y contenido personalizados, medición de anuncios y contenido, percepciones del público, y desarrollo de productos

    Los anuncios y el contenido pueden personalizarse en base a su perfil. Se pueden añadir más datos para personalizar mejor los anuncios y contenidos. Se puede medir el rendimiento de los anuncios y contenidos. Se puede obtener la percepción sobre el público que ha visto los anuncios y contenidos. Dichos datos pueden usarse para desarrollar o mejorar la experiencia del usuario, sistemas y software.

Al hacer clic en ‘Estoy De Acuerdo’ usted permitirá el uso de las cookies, identificadores de dispositivo, balizas web u otras tecnologías similares indicadas. Su configuración puede cambiarse desde el navegador de su dispositivo.

Para ciertos fines, los intereses legítimos pueden ser considerados por encima del consentimiento. Puede leer más sobre ello en nuestra Política de Privacidad y Cookies.